Time,TemperatureF,DewpointF,PressureIn,WindDirection,WindDirectionDegrees,WindSpeedMPH,WindSpeedGustMPH,Humidity,HourlyPrecipIn,Conditions,Clouds,dailyrainin,SoftwareType,DateUTC
2013-06-17 00:02:00,71.5,65.7,29.73,SW,224,0.0,0.0,82,0.00,,FEW065,0.00,VWS V14.01,2013-06-17 04:02:00,
2013-06-17 00:07:00,71.3,65.5,29.73,SW,224,0.0,0.0,82,0.00,,FEW065,0.00,VWS V14.01,2013-06-17 04:07:00,
2013-06-17 00:13:00,71.3,65.5,29.73,SW,224,0.0,0.0,82,0.00,,FEW065,0.00,VWS V14.01,2013-06-17 04:13:00,
2013-06-17 00:22:00,71.1,65.7,29.74,SW,224,0.0,0.0,83,0.00,,OVC085,0.00,VWS V14.01,2013-06-17 04:22:00,
2013-06-17 00:27:00,71.1,65.7,29.74,SW,224,0.0,0.0,83,0.00,,OVC085,0.00,VWS V14.01,2013-06-17 04:27:00,
2013-06-17 00:37:00,71.1,65.7,29.74,SW,224,0.0,0.0,83,0.00,,OVC085,0.00,VWS V14.01,2013-06-17 04:37:00,
2013-06-17 00:42:00,70.9,65.5,29.74,SW,223,0.0,0.0,83,0.00,,OVC085,0.00,VWS V14.01,2013-06-17 04:42:00,
2013-06-17 00:47:00,70.9,65.5,29.74,SW,224,0.0,0.0,83,0.00,,OVC085,0.00,VWS V14.01,2013-06-17 04:47:00,
2013-06-17 00:52:00,70.9,65.5,29.74,SW,224,0.0,0.0,83,0.00,,OVC085,0.00,VWS V14.01,2013-06-17 04:52:00,
2013-06-17 00:57:00,70.8,65.4,29.74,SW,224,0.0,0.0,83,0.00,,OVC085,0.00,VWS V14.01,2013-06-17 04:57:00,
2013-06-17 01:07:00,70.4,65.3,29.74,SW,224,0.0,0.0,84,0.00,,OVC085,0.00,VWS V14.01,2013-06-17 05:07:00,
2013-06-17 01:12:00,70.4,65.7,29.74,SW,224,0.0,0.0,85,0.00,,OVC085,0.00,VWS V14.01,2013-06-17 05:12:00,
2013-06-17 01:17:00,70.3,65.6,29.74,SW,224,0.0,0.0,85,0.00,,OVC085,0.00,VWS V14.01,2013-06-17 05:17:00,
2013-06-17 01:27:00,70.1,65.4,29.74,SW,224,0.0,0.0,85,0.00,,SCT080,0.00,VWS V14.01,2013-06-17 05:27:00,
2013-06-17 01:32:00,70.1,65.7,29.73,SW,224,0.0,0.0,86,0.00,,SCT080,0.00,VWS V14.01,2013-06-17 05:32:00,
2013-06-17 01:42:00,69.9,65.5,29.73,SW,224,0.0,0.0,86,0.00,,SCT080,0.00,VWS V14.01,2013-06-17 05:42:00,
2013-06-17 01:47:00,69.8,65.4,29.73,SW,224,0.0,0.0,86,0.00,,SCT080,0.00,VWS V14.01,2013-06-17 05:47:00,
2013-06-17 01:52:00,69.8,65.4,29.73,SW,224,0.0,0.0,86,0.00,,SCT080,0.00,VWS V14.01,2013-06-17 05:52:00,
2013-06-17 01:57:00,69.8,65.4,29.73,SW,224,0.0,0.0,86,0.00,,SCT080,0.00,VWS V14.01,2013-06-17 05:57:00,
2013-06-17 02:02:00,69.6,65.6,29.72,SW,224,0.0,0.0,87,0.00,,SCT080,0.00,VWS V14.01,2013-06-17 06:02:00,
2013-06-17 02:12:00,69.4,65.4,29.72,SW,224,0.0,0.0,87,0.00,,SCT080,0.00,VWS V14.01,2013-06-17 06:12:00,
2013-06-17 02:17:00,69.3,65.3,29.72,SW,224,0.0,0.0,87,0.00,,SCT080,0.00,VWS V14.01,2013-06-17 06:17:00,
2013-06-17 02:22:00,69.3,65.6,29.72,SW,224,0.0,0.0,88,0.00,,SCT085,0.00,VWS V14.01,2013-06-17 06:22:00,
2013-06-17 02:27:00,69.1,65.4,29.72,SW,224,0.0,0.0,88,0.00,,SCT085,0.00,VWS V14.01,2013-06-17 06:27:00,
2013-06-17 02:37:00,69.1,65.4,29.73,SW,224,0.0,0.0,88,0.00,,SCT085,0.00,VWS V14.01,2013-06-17 06:37:00,
2013-06-17 02:42:00,69.1,65.7,29.73,SW,224,0.0,0.0,89,0.00,,SCT085,0.00,VWS V14.01,2013-06-17 06:42:00,
2013-06-17 02:47:00,69.1,65.7,29.74,SW,224,0.0,0.0,89,0.00,,SCT085,0.00,VWS V14.01,2013-06-17 06:47:00,
2013-06-17 02:52:00,69.1,65.7,29.74,SW,224,0.0,0.0,89,0.00,,SCT085,0.00,VWS V14.01,2013-06-17 06:52:00,
2013-06-17 03:02:00,68.9,65.5,29.73,SW,224,0.0,0.0,89,0.00,,SCT085,0.00,VWS V14.01,2013-06-17 07:02:00,
2013-06-17 03:07:00,68.9,65.5,29.73,SW,224,0.0,0.0,89,0.00,,SCT085,0.00,VWS V14.01,2013-06-17 07:07:00,
2013-06-17 03:17:00,68.6,65.2,29.73,SW,224,0.0,0.0,89,0.00,,SCT085,0.00,VWS V14.01,2013-06-17 07:17:00,
2013-06-17 03:22:00,68.4,65.0,29.73,SW,224,0.0,0.0,89,0.00,,CLR,0.00,VWS V14.01,2013-06-17 07:22:00,
2013-06-17 03:27:00,68.4,65.4,29.73,SW,224,0.0,0.0,90,0.00,,CLR,0.00,VWS V14.01,2013-06-17 07:27:00,
2013-06-17 03:37:00,68.3,65.3,29.73,SW,224,0.0,0.0,90,0.00,,CLR,0.00,VWS V14.01,2013-06-17 07:37:00,
2013-06-17 03:42:00,68.1,65.1,29.73,SW,224,0.0,0.0,90,0.00,,CLR,0.00,VWS V14.01,2013-06-17 07:42:00,
2013-06-17 03:47:00,68.1,65.4,29.72,SW,224,0.0,0.0,91,0.00,,CLR,0.00,VWS V14.01,2013-06-17 07:47:00,
2013-06-17 03:52:00,68.1,65.4,29.72,SW,224,0.0,0.0,91,0.00,,CLR,0.00,VWS V14.01,2013-06-17 07:52:00,
2013-06-17 03:57:00,68.1,65.4,29.72,SW,224,0.0,0.0,91,0.00,,CLR,0.00,VWS V14.01,2013-06-17 07:57:00,
2013-06-17 04:02:00,68.1,65.4,29.72,SW,224,0.0,0.0,91,0.00,,CLR,0.00,VWS V14.01,2013-06-17 08:02:00,
2013-06-17 04:07:00,68.1,65.4,29.72,SW,224,0.0,0.0,91,0.00,,CLR,0.00,VWS V14.01,2013-06-17 08:07:00,
2013-06-17 04:12:00,67.9,65.2,29.72,SW,224,0.0,0.0,91,0.00,,CLR,0.00,VWS V14.01,2013-06-17 08:12:00,
2013-06-17 04:17:00,67.9,65.2,29.72,SW,224,0.0,0.0,91,0.00,,CLR,0.00,VWS V14.01,2013-06-17 08:17:00,
2013-06-17 04:22:00,67.9,65.5,29.72,SW,224,0.0,0.0,92,0.00,,BKN080,0.00,VWS V14.01,2013-06-17 08:22:00,
2013-06-17 04:27:00,67.8,65.4,29.72,SW,224,0.0,0.0,92,0.00,,BKN080,0.00,VWS V14.01,2013-06-17 08:27:00,
2013-06-17 04:37:00,67.8,65.4,29.72,SW,224,0.0,0.0,92,0.00,,BKN080,0.00,VWS V14.01,2013-06-17 08:37:00,
2013-06-17 04:42:00,67.8,65.4,29.72,SW,224,0.0,0.0,92,0.00,,BKN080,0.00,VWS V14.01,2013-06-17 08:42:00,
2013-06-17 04:52:00,67.8,65.4,29.73,SW,224,0.0,0.0,92,0.00,,BKN080,0.00,VWS V14.01,2013-06-17 08:52:00,
2013-06-17 05:02:00,67.9,65.5,29.73,SW,224,0.0,0.0,92,0.00,,BKN080,0.00,VWS V14.01,2013-06-17 09:02:00,
2013-06-17 05:12:00,67.9,65.5,29.73,SW,224,0.0,0.0,92,0.00,,BKN080,0.00,VWS V14.01,2013-06-17 09:12:00,
2013-06-17 05:22:00,67.9,65.5,29.73,SW,224,0.0,0.0,92,0.00,,BKN080,0.00,VWS V14.01,2013-06-17 09:22:00,
2013-06-17 05:27:00,67.8,65.7,29.73,SW,224,0.0,0.0,93,0.00,,BKN080,0.00,VWS V14.01,2013-06-17 09:27:00,
2013-06-17 05:37:00,67.8,65.7,29.74,SW,224,0.0,0.0,93,0.00,,BKN080,0.00,VWS V14.01,2013-06-17 09:37:00,
2013-06-17 05:47:00,67.8,65.7,29.74,SW,224,0.0,0.0,93,0.00,,BKN080,0.00,VWS V14.01,2013-06-17 09:47:00,
2013-06-17 05:57:00,67.8,65.7,29.74,SW,224,0.0,0.0,93,0.00,,BKN080,0.00,VWS V14.01,2013-06-17 09:57:00,
2013-06-17 06:02:00,67.8,65.7,29.73,SW,224,0.0,0.0,93,0.00,,BKN080,0.00,VWS V14.01,2013-06-17 10:02:00,
2013-06-17 06:07:00,67.6,65.5,29.73,SW,224,0.0,0.0,93,0.00,,BKN080,0.00,VWS V14.01,2013-06-17 10:07:00,
2013-06-17 06:17:00,67.6,65.5,29.73,SW,224,0.0,0.0,93,0.00,,BKN080,0.00,VWS V14.01,2013-06-17 10:17:00,
2013-06-17 06:22:00,67.6,65.5,29.73,SW,224,0.0,0.0,93,0.00,,CLR,0.00,VWS V14.01,2013-06-17 10:22:00,
2013-06-17 06:32:00,67.4,65.3,29.73,SW,224,0.0,0.0,93,0.00,,CLR,0.00,VWS V14.01,2013-06-17 10:32:00,
2013-06-17 06:37:00,67.3,65.2,29.73,SW,224,0.0,0.0,93,0.00,,CLR,0.00,VWS V14.01,2013-06-17 10:37:00,
2013-06-17 06:42:00,67.3,65.2,29.73,SW,224,0.0,0.0,93,0.00,,CLR,0.00,VWS V14.01,2013-06-17 10:42:00,
2013-06-17 06:47:00,67.3,65.2,29.73,SW,224,0.0,0.0,93,0.00,,CLR,0.00,VWS V14.01,2013-06-17 10:47:00,
2013-06-17 06:52:00,67.3,65.2,29.73,SSW,205,0.0,0.0,93,0.00,,CLR,0.00,VWS V14.01,2013-06-17 10:52:00,
2013-06-17 07:02:00,67.4,65.3,29.72,SSW,200,0.0,0.0,93,0.00,,CLR,0.00,VWS V14.01,2013-06-17 11:02:00,
2013-06-17 07:12:00,67.6,65.5,29.72,SSW,199,0.0,0.0,93,0.00,,CLR,0.00,VWS V14.01,2013-06-17 11:12:00,
2013-06-17 07:17:00,67.8,65.7,29.73,SSW,198,0.0,0.0,93,0.00,,CLR,0.00,VWS V14.01,2013-06-17 11:17:00,
2013-06-17 07:22:00,67.9,65.8,29.73,SSW,198,0.0,0.0,93,0.00,,CLR,0.00,VWS V14.01,2013-06-17 11:22:00,
2013-06-17 07:32:00,68.3,65.9,29.73,SSW,198,0.0,0.0,92,0.00,,CLR,0.00,VWS V14.01,2013-06-17 11:32:00,
2013-06-17 07:37:00,68.4,66.0,29.73,SSW,199,0.0,0.0,92,0.00,,CLR,0.00,VWS V14.01,2013-06-17 11:37:00,
2013-06-17 07:42:00,68.6,66.2,29.73,SSW,203,0.0,0.0,92,0.00,,CLR,0.00,VWS V14.01,2013-06-17 11:42:00,
2013-06-17 07:52:00,69.1,66.4,29.74,SSW,203,0.0,0.0,91,0.00,,CLR,0.00,VWS V14.01,2013-06-17 11:52:00,
2013-06-17 08:02:00,69.3,66.6,29.74,SSW,205,0.0,0.0,91,0.00,,CLR,0.00,VWS V14.01,2013-06-17 12:02:00,
2013-06-17 08:07:00,69.4,66.3,29.74,SSW,206,0.0,0.0,90,0.00,,CLR,0.00,VWS V14.01,2013-06-17 12:07:00,
2013-06-17 08:17:00,69.6,66.2,29.75,SSW,209,0.0,0.0,89,0.00,,CLR,0.00,VWS V14.01,2013-06-17 12:17:00,
2013-06-17 08:22:00,69.8,66.4,29.75,SSW,212,0.0,0.0,89,0.00,,,0.00,VWS V14.01,2013-06-17 12:22:00,
2013-06-17 08:27:00,70.1,66.7,29.75,SSW,212,0.0,0.0,89,0.00,,,0.00,VWS V14.01,2013-06-17 12:27:00,
2013-06-17 08:37:00,70.3,66.6,29.75,SW,215,0.0,0.0,88,0.00,,,0.00,VWS V14.01,2013-06-17 12:37:00,
2013-06-17 08:42:00,70.4,66.3,29.75,SW,215,0.0,0.0,87,0.00,,,0.00,VWS V14.01,2013-06-17 12:42:00,
2013-06-17 08:47:00,70.9,67.2,29.75,SW,215,0.0,0.0,88,0.00,,,0.00,VWS V14.01,2013-06-17 12:47:00,
2013-06-17 08:57:00,71.6,67.2,29.75,SSW,209,0.0,0.0,86,0.00,,,0.00,VWS V14.01,2013-06-17 12:57:00,
2013-06-17 09:02:00,71.8,67.4,29.75,SSW,210,0.0,0.0,86,0.00,,,0.00,VWS V14.01,2013-06-17 13:02:00,
2013-06-17 09:07:00,71.6,66.2,29.75,SSW,213,0.0,0.0,83,0.00,,,0.00,VWS V14.01,2013-06-17 13:07:00,
2013-06-17 09:12:00,71.8,66.4,29.75,SW,217,0.0,0.0,83,0.00,,,0.00,VWS V14.01,2013-06-17 13:12:00,
2013-06-17 09:17:00,72.0,66.2,29.75,SW,217,0.0,0.0,82,0.00,,,0.00,VWS V14.01,2013-06-17 13:17:00,
2013-06-17 09:22:00,72.3,66.5,29.75,SSW,210,0.0,0.0,82,0.00,,CLR,0.00,VWS V14.01,2013-06-17 13:22:00,
2013-06-17 09:27:00,72.1,65.9,29.75,SW,216,0.0,0.0,81,0.00,,CLR,0.00,VWS V14.01,2013-06-17 13:27:00,
2013-06-17 09:37:00,72.5,66.3,29.75,SW,222,0.0,0.0,81,0.00,,CLR,0.00,VWS V14.01,2013-06-17 13:37:00,
2013-06-17 09:42:00,72.7,66.5,29.75,SW,223,0.0,0.0,81,0.00,,CLR,0.00,VWS V14.01,2013-06-17 13:42:00,
2013-06-17 09:47:00,73.0,66.5,29.75,SW,223,0.0,0.0,80,0.00,,CLR,0.00,VWS V14.01,2013-06-17 13:47:00,
2013-06-17 09:52:00,73.2,66.7,29.75,SW,223,0.0,0.0,80,0.00,,CLR,0.00,VWS V14.01,2013-06-17 13:52:00,
2013-06-17 09:57:00,73.3,66.8,29.75,SW,224,0.0,0.0,80,0.00,,CLR,0.00,VWS V14.01,2013-06-17 13:57:00,
2013-06-17 10:02:00,73.7,67.2,29.76,WSW,241,0.0,0.0,80,0.00,,CLR,0.00,VWS V14.01,2013-06-17 14:02:00,
2013-06-17 10:07:00,73.9,66.6,29.76,SW,227,0.0,0.0,78,0.00,,CLR,0.00,VWS V14.01,2013-06-17 14:07:00,
2013-06-17 10:12:00,74.2,66.9,29.76,SW,220,0.0,0.0,78,0.00,,CLR,0.00,VWS V14.01,2013-06-17 14:12:00,
2013-06-17 10:17:00,74.6,67.3,29.75,WSW,237,0.0,0.0,78,0.00,,CLR,0.00,VWS V14.01,2013-06-17 14:17:00,
2013-06-17 10:27:00,75.1,67.0,29.75,SW,234,0.0,0.0,76,0.00,,CLR,0.00,VWS V14.01,2013-06-17 14:27:00,
2013-06-17 10:32:00,75.4,67.3,29.75,SW,236,0.0,0.0,76,0.00,,CLR,0.00,VWS V14.01,2013-06-17 14:32:00,
2013-06-17 10:42:00,76.0,68.3,29.75,WSW,237,0.0,0.0,77,0.00,,CLR,0.00,VWS V14.01,2013-06-17 14:42:00,
2013-06-17 10:47:00,76.3,67.8,29.75,SW,234,0.0,0.0,75,0.00,,CLR,0.00,VWS V14.01,2013-06-17 14:47:00,
2013-06-17 10:52:00,76.5,68.0,29.75,SW,220,0.0,0.0,75,0.00,,CLR,0.00,VWS V14.01,2013-06-17 14:52:00,
2013-06-17 11:02:00,77.2,66.2,29.75,SW,220,0.0,0.0,69,0.00,,CLR,0.00,VWS V14.01,2013-06-17 15:02:00,
2013-06-17 11:07:00,77.2,66.2,29.75,West,264,0.0,0.0,69,0.00,,CLR,0.00,VWS V14.01,2013-06-17 15:07:00,
2013-06-17 11:17:00,78.1,66.3,29.75,West,264,0.0,0.0,67,0.00,,CLR,0.00,VWS V14.01,2013-06-17 15:17:00,
2013-06-17 11:22:00,77.9,64.8,29.75,West,271,0.0,0.0,64,0.00,,CLR,0.00,VWS V14.01,2013-06-17 15:22:00,
2013-06-17 11:27:00,78.1,64.5,29.75,West,267,0.0,0.0,63,0.00,,CLR,0.00,VWS V14.01,2013-06-17 15:27:00,
2013-06-17 11:32:00,78.3,63.3,29.74,WSW,257,0.0,0.0,60,0.00,,CLR,0.00,VWS V14.01,2013-06-17 15:32:00,
2013-06-17 11:42:00,79.4,60.8,29.74,SW,224,0.0,0.0,53,0.00,,CLR,0.00,VWS V14.01,2013-06-17 15:42:00,
2013-06-17 11:47:00,79.6,61.0,29.74,SW,232,0.0,0.0,53,0.00,,CLR,0.00,VWS V14.01,2013-06-17 15:47:00,
2013-06-17 11:52:00,79.8,59.5,29.74,SW,232,0.0,0.0,50,0.00,,CLR,0.00,VWS V14.01,2013-06-17 15:52:00,
2013-06-17 11:57:00,79.8,60.1,29.74,SW,232,0.0,0.0,51,0.00,,CLR,0.00,VWS V14.01,2013-06-17 15:57:00,
2013-06-17 12:02:00,79.9,60.7,29.74,SW,234,0.0,0.0,52,0.00,,CLR,0.00,VWS V14.01,2013-06-17 16:02:00,
2013-06-17 12:12:00,80.9,60.5,29.74,WSW,246,0.0,0.0,50,0.00,,CLR,0.00,VWS V14.01,2013-06-17 16:12:00,
2013-06-17 12:22:00,81.1,58.4,29.74,SW,222,0.0,0.0,46,0.00,,CLR,0.00,VWS V14.01,2013-06-17 16:22:00,
2013-06-17 12:27:00,80.9,57.6,29.74,SW,222,0.0,0.0,45,0.00,,CLR,0.00,VWS V14.01,2013-06-17 16:27:00,
2013-06-17 12:32:00,81.2,56.6,29.74,SW,216,0.0,0.0,43,0.00,,CLR,0.00,VWS V14.01,2013-06-17 16:32:00,
2013-06-17 12:37:00,81.6,54.3,29.74,SW,222,0.0,0.0,39,0.00,,CLR,0.00,VWS V14.01,2013-06-17 16:37:00,
2013-06-17 12:42:00,82.2,60.6,29.74,SSW,213,0.0,0.0,48,0.00,,CLR,0.00,VWS V14.01,2013-06-17 16:42:00,
2013-06-17 12:52:00,83.4,56.6,29.74,SW,229,0.0,0.0,40,0.00,,CLR,0.00,VWS V14.01,2013-06-17 16:52:00,
2013-06-17 13:02:00,82.6,56.5,29.74,SW,227,0.0,0.0,41,0.00,,CLR,0.00,VWS V14.01,2013-06-17 17:02:00,
2013-06-17 13:12:00,82.8,56.0,29.74,SW,232,0.0,0.0,40,0.00,,CLR,0.00,VWS V14.01,2013-06-17 17:12:00,
2013-06-17 13:17:00,83.2,54.2,29.74,SW,227,0.0,0.0,37,0.00,,CLR,0.00,VWS V14.01,2013-06-17 17:17:00,
2013-06-17 13:22:00,83.8,57.6,29.74,SW,227,0.0,0.0,41,0.00,,CLR,0.00,VWS V14.01,2013-06-17 17:22:00,
2013-06-17 13:27:00,83.8,54.8,29.74,WSW,239,0.0,0.0,37,0.00,,CLR,0.00,VWS V14.01,2013-06-17 17:27:00,
2013-06-17 13:32:00,83.4,55.2,29.74,West,261,0.0,0.0,38,0.00,,CLR,0.00,VWS V14.01,2013-06-17 17:32:00,
2013-06-17 13:37:00,83.2,51.9,29.74,WSW,244,0.0,0.0,34,0.00,,CLR,0.00,VWS V14.01,2013-06-17 17:37:00,
2013-06-17 13:42:00,83.8,54.8,29.74,WSW,243,0.0,0.0,37,0.00,,CLR,0.00,VWS V14.01,2013-06-17 17:42:00,
2013-06-17 13:47:00,83.8,55.5,29.74,WSW,246,0.0,0.0,38,0.00,,CLR,0.00,VWS V14.01,2013-06-17 17:47:00,
2013-06-17 13:52:00,83.2,54.2,29.74,WSW,248,0.0,0.0,37,0.00,,CLR,0.00,VWS V14.01,2013-06-17 17:52:00,
2013-06-17 13:57:00,83.4,55.2,29.74,WSW,248,0.0,0.0,38,0.00,,CLR,0.00,VWS V14.01,2013-06-17 17:57:00,
2013-06-17 14:07:00,83.4,53.7,29.74,WSW,248,0.0,0.0,36,0.00,,CLR,0.00,VWS V14.01,2013-06-17 18:07:00,
2013-06-17 14:12:00,83.8,54.0,29.74,SW,215,0.0,0.0,36,0.00,,CLR,0.00,VWS V14.01,2013-06-17 18:12:00,
2013-06-17 14:17:00,83.6,53.8,29.73,WSW,250,0.0,0.0,36,0.00,,CLR,0.00,VWS V14.01,2013-06-17 18:17:00,
2013-06-17 14:27:00,83.6,53.8,29.73,WSW,251,0.0,0.0,36,0.00,,CLR,0.00,VWS V14.01,2013-06-17 18:27:00,
2013-06-17 14:32:00,83.2,53.5,29.73,WNW,295,0.0,0.0,36,0.00,,CLR,0.00,VWS V14.01,2013-06-17 18:32:00,
2013-06-17 14:37:00,83.4,52.9,29.73,WSW,257,0.0,0.0,35,0.00,,CLR,0.00,VWS V14.01,2013-06-17 18:37:00,
2013-06-17 14:42:00,83.4,52.1,29.73,West,264,0.0,0.0,34,0.00,,CLR,0.00,VWS V14.01,2013-06-17 18:42:00,
2013-06-17 14:47:00,84.1,52.7,29.73,WSW,248,0.0,0.0,34,0.00,,CLR,0.00,VWS V14.01,2013-06-17 18:47:00,
2013-06-17 14:57:00,84.3,51.3,29.73,SSW,210,0.0,0.0,32,0.00,,CLR,0.00,VWS V14.01,2013-06-17 18:57:00,
2013-06-17 15:02:00,84.7,54.0,29.73,SW,234,0.0,0.0,35,0.00,,CLR,0.00,VWS V14.01,2013-06-17 19:02:00,
2013-06-17 15:12:00,84.9,54.2,29.73,SW,234,0.0,0.0,35,0.00,,CLR,0.00,VWS V14.01,2013-06-17 19:12:00,
2013-06-17 15:17:00,84.7,52.4,29.73,SW,234,0.0,0.0,33,0.00,,CLR,0.00,VWS V14.01,2013-06-17 19:17:00,
2013-06-17 15:22:00,84.5,53.1,29.73,West,268,0.0,0.0,34,0.00,,CLR,0.00,VWS V14.01,2013-06-17 19:22:00,
2013-06-17 15:32:00,84.1,49.3,29.73,West,263,0.0,0.0,30,0.00,,CLR,0.00,VWS V14.01,2013-06-17 19:32:00,
2013-06-17 15:37:00,84.7,51.6,29.73,West,263,0.0,0.0,32,0.00,,CLR,0.00,VWS V14.01,2013-06-17 19:37:00,
2013-06-17 15:42:00,85.3,51.3,29.73,WSW,251,0.0,0.0,31,0.00,,CLR,0.00,VWS V14.01,2013-06-17 19:42:00,
2013-06-17 15:47:00,85.3,50.4,29.72,WSW,248,0.0,0.0,30,0.00,,CLR,0.00,VWS V14.01,2013-06-17 19:47:00,
2013-06-17 15:57:00,84.9,51.8,29.72,WSW,257,0.0,0.0,32,0.00,,CLR,0.00,VWS V14.01,2013-06-17 19:57:00,
2013-06-17 16:07:00,83.8,49.1,29.72,West,271,0.0,0.0,30,0.00,,CLR,0.00,VWS V14.01,2013-06-17 20:07:00,
2013-06-17 16:12:00,84.1,53.5,29.72,West,271,0.0,0.0,35,0.00,,CLR,0.00,VWS V14.01,2013-06-17 20:12:00,
2013-06-17 16:17:00,84.9,52.6,29.71,West,271,0.0,0.0,33,0.00,,CLR,0.00,VWS V14.01,2013-06-17 20:17:00,
2013-06-17 16:27:00,85.5,51.4,29.71,SW,236,0.0,0.0,31,0.00,,CLR,0.00,VWS V14.01,2013-06-17 20:27:00,
2013-06-17 16:32:00,84.9,50.0,29.71,SW,232,0.0,0.0,30,0.00,,CLR,0.00,VWS V14.01,2013-06-17 20:32:00,
2013-06-17 16:37:00,85.1,51.1,29.71,WSW,250,0.0,0.0,31,0.00,,CLR,0.00,VWS V14.01,2013-06-17 20:37:00,
2013-06-17 16:42:00,85.3,50.4,29.71,WSW,250,0.0,0.0,30,0.00,,CLR,0.00,VWS V14.01,2013-06-17 20:42:00,
2013-06-17 16:47:00,86.3,49.4,29.70,SW,233,0.0,0.0,28,0.00,,CLR,0.00,VWS V14.01,2013-06-17 20:47:00,
2013-06-17 16:57:00,85.3,52.1,29.70,SW,236,0.0,0.0,32,0.00,,CLR,0.00,VWS V14.01,2013-06-17 20:57:00,
2013-06-17 17:02:00,84.5,50.6,29.69,WSW,250,0.0,0.0,31,0.00,,CLR,0.00,VWS V14.01,2013-06-17 21:02:00,
2013-06-17 17:12:00,85.9,51.8,29.69,SW,232,0.0,0.0,31,0.00,,CLR,0.00,VWS V14.01,2013-06-17 21:12:00,
2013-06-17 17:17:00,85.5,51.4,29.69,WSW,241,0.0,0.0,31,0.00,,CLR,0.00,VWS V14.01,2013-06-17 21:17:00,
2013-06-17 17:22:00,85.1,53.6,29.69,WSW,241,0.0,0.0,34,0.00,,CLR,0.00,VWS V14.01,2013-06-17 21:22:00,
2013-06-17 17:27:00,84.5,50.6,29.69,WSW,246,0.0,0.0,31,0.00,,CLR,0.00,VWS V14.01,2013-06-17 21:27:00,
2013-06-17 17:32:00,84.0,51.0,29.69,WSW,246,0.0,0.0,32,0.00,,CLR,0.00,VWS V14.01,2013-06-17 21:32:00,
2013-06-17 17:37:00,84.0,53.4,29.69,WSW,246,0.0,0.0,35,0.00,,CLR,0.00,VWS V14.01,2013-06-17 21:37:00,
2013-06-17 17:42:00,83.8,53.3,29.69,WSW,246,0.0,0.0,35,0.00,,CLR,0.00,VWS V14.01,2013-06-17 21:42:00,
2013-06-17 17:52:00,84.0,50.2,29.69,WSW,246,0.0,0.0,31,0.00,,CLR,0.00,VWS V14.01,2013-06-17 21:52:00,
2013-06-17 18:02:00,85.7,49.8,29.68,WSW,246,0.0,0.0,29,0.00,,CLR,0.00,VWS V14.01,2013-06-17 22:02:00,
2013-06-17 18:07:00,85.3,51.3,29.68,WSW,246,0.0,0.0,31,0.00,,CLR,0.00,VWS V14.01,2013-06-17 22:07:00,
2013-06-17 18:17:00,84.7,52.4,29.68,WSW,246,0.0,0.0,33,0.00,,CLR,0.00,VWS V14.01,2013-06-17 22:17:00,
2013-06-17 18:22:00,84.9,50.0,29.68,WSW,246,0.0,0.0,30,0.00,,CLR,0.00,VWS V14.01,2013-06-17 22:22:00,
2013-06-17 18:27:00,84.7,50.8,29.68,WSW,246,0.0,0.0,31,0.00,,CLR,0.00,VWS V14.01,2013-06-17 22:27:00,
2013-06-17 18:37:00,84.5,51.4,29.68,WSW,246,0.0,0.0,32,0.00,,CLR,0.00,VWS V14.01,2013-06-17 22:37:00,
2013-06-17 18:42:00,84.7,51.6,29.68,WSW,246,0.0,0.0,32,0.00,,CLR,0.00,VWS V14.01,2013-06-17 22:42:00,
2013-06-17 18:47:00,84.9,51.8,29.69,WSW,246,0.0,0.0,32,0.00,,CLR,0.00,VWS V14.01,2013-06-17 22:47:00,
2013-06-17 18:57:00,84.3,51.3,29.69,WSW,246,0.0,0.0,32,0.00,,CLR,0.00,VWS V14.01,2013-06-17 22:57:00,
2013-06-17 19:02:00,84.1,52.7,29.69,WSW,246,0.0,0.0,34,0.00,,CLR,0.00,VWS V14.01,2013-06-17 23:02:00,
2013-06-17 19:12:00,84.1,55.0,29.69,WSW,246,0.0,0.0,37,0.00,,CLR,0.00,VWS V14.01,2013-06-17 23:12:00,
2013-06-17 19:17:00,84.1,55.8,29.69,WSW,246,0.0,0.0,38,0.00,,CLR,0.00,VWS V14.01,2013-06-17 23:17:00,
2013-06-17 19:22:00,83.6,56.8,29.69,WSW,246,0.0,0.0,40,0.00,,FEW090,0.00,VWS V14.01,2013-06-17 23:22:00,
2013-06-17 19:27:00,83.0,54.1,29.69,WSW,246,0.0,0.0,37,0.00,,FEW090,0.00,VWS V14.01,2013-06-17 23:27:00,
2013-06-17 19:32:00,82.8,56.7,29.69,WSW,246,0.0,0.0,41,0.00,,FEW090,0.00,VWS V14.01,2013-06-17 23:32:00,
2013-06-17 19:42:00,82.6,56.5,29.69,WSW,246,0.0,0.0,41,0.00,,FEW090,0.00,VWS V14.01,2013-06-17 23:42:00,
2013-06-17 19:47:00,82.4,55.7,29.69,WSW,246,0.0,0.0,40,0.00,,FEW090,0.00,VWS V14.01,2013-06-17 23:47:00,
2013-06-17 19:57:00,82.6,56.5,29.69,WSW,246,0.0,0.0,41,0.00,,FEW090,0.00,VWS V14.01,2013-06-17 23:57:00,
2013-06-17 20:02:00,82.6,56.5,29.68,WSW,246,0.0,0.0,41,0.00,,FEW090,0.00,VWS V14.01,2013-06-18 00:02:00,
2013-06-17 20:07:00,82.2,58.1,29.68,WSW,246,0.0,0.0,44,0.00,,FEW090,0.00,VWS V14.01,2013-06-18 00:07:00,
2013-06-17 20:17:00,81.2,56.6,29.68,WSW,246,0.0,0.0,43,0.00,,FEW090,0.00,VWS V14.01,2013-06-18 00:17:00,
2013-06-17 20:22:00,80.7,56.8,29.68,WSW,246,0.0,0.0,44,0.00,,FEW090,0.00,VWS V14.01,2013-06-18 00:22:00,
2013-06-17 20:27:00,80.3,55.1,29.68,WSW,246,0.0,0.0,42,0.00,,FEW090,0.00,VWS V14.01,2013-06-18 00:27:00,
2013-06-17 20:32:00,80.1,56.2,29.68,WSW,246,0.0,0.0,44,0.00,,FEW090,0.00,VWS V14.01,2013-06-18 00:32:00,
2013-06-17 20:37:00,79.8,56.6,29.68,WSW,246,0.0,0.0,45,0.00,,FEW090,0.00,VWS V14.01,2013-06-18 00:37:00,
2013-06-17 20:47:00,79.0,57.7,29.68,WSW,246,0.0,0.0,48,0.00,,FEW090,0.00,VWS V14.01,2013-06-18 00:47:00,
2013-06-17 20:52:00,78.8,58.6,29.68,WSW,246,0.0,0.0,50,0.00,,FEW090,0.00,VWS V14.01,2013-06-18 00:52:00,
2013-06-17 20:57:00,78.5,59.4,29.68,WSW,246,0.0,0.0,52,0.00,,FEW090,0.00,VWS V14.01,2013-06-18 00:57:00,
2013-06-17 21:07:00,78.1,59.1,29.68,WSW,246,0.0,0.0,52,0.00,,FEW090,0.00,VWS V14.01,2013-06-18 01:07:00,
2013-06-17 21:12:00,77.7,59.2,29.68,WSW,246,0.0,0.0,53,0.00,,FEW090,0.00,VWS V14.01,2013-06-18 01:12:00,
2013-06-17 21:22:00,77.6,59.1,29.68,WSW,246,0.0,0.0,53,0.00,,BKN120,0.00,VWS V14.01,2013-06-18 01:22:00,
2013-06-17 21:27:00,77.7,58.7,29.68,WSW,246,0.0,0.0,52,0.00,,BKN120,0.00,VWS V14.01,2013-06-18 01:27:00,
2013-06-17 21:32:00,77.7,58.7,29.68,WSW,246,0.0,0.0,52,0.00,,BKN120,0.00,VWS V14.01,2013-06-18 01:32:00,
2013-06-17 21:42:00,77.4,58.4,29.68,WSW,246,0.0,0.0,52,0.00,,BKN120,0.00,VWS V14.01,2013-06-18 01:42:00,
2013-06-17 21:47:00,77.2,58.8,29.68,WSW,246,0.0,0.0,53,0.00,,BKN120,0.00,VWS V14.01,2013-06-18 01:47:00,
2013-06-17 21:52:00,77.0,59.1,29.68,WSW,246,0.0,0.0,54,0.00,,BKN120,0.00,VWS V14.01,2013-06-18 01:52:00,
2013-06-17 22:02:00,76.3,59.0,29.68,WSW,246,0.0,0.0,55,0.00,,BKN120,0.00,VWS V14.01,2013-06-18 02:02:00,
2013-06-17 22:07:00,76.1,58.8,29.68,WSW,246,0.0,0.0,55,0.00,,BKN120,0.00,VWS V14.01,2013-06-18 02:07:00,
2013-06-17 22:12:00,76.0,58.7,29.68,WSW,246,0.0,0.0,55,0.00,,BKN120,0.00,VWS V14.01,2013-06-18 02:12:00,
2013-06-17 22:17:00,76.0,58.7,29.69,WSW,246,0.0,0.0,55,0.00,,BKN120,0.00,VWS V14.01,2013-06-18 02:17:00,
2013-06-17 22:22:00,75.8,59.0,29.69,WSW,246,0.0,0.0,56,0.00,,RA,0.00,VWS V14.01,2013-06-18 02:22:00,
2013-06-17 22:27:00,75.8,59.0,29.69,WSW,246,0.0,0.0,56,0.00,,RA,0.00,VWS V14.01,2013-06-18 02:27:00,
2013-06-17 22:32:00,75.8,60.0,29.69,WSW,246,0.0,0.0,58,0.00,,RA,0.00,VWS V14.01,2013-06-18 02:32:00,
2013-06-17 22:37:00,75.6,60.3,29.69,WSW,246,0.0,0.0,59,0.00,,RA,0.00,VWS V14.01,2013-06-18 02:37:00,
2013-06-17 22:42:00,75.4,61.0,29.69,WSW,246,0.0,0.0,61,0.00,,RA,0.00,VWS V14.01,2013-06-18 02:42:00,
2013-06-17 22:47:00,75.3,61.4,29.70,WSW,246,0.0,0.0,62,0.00,,RA,0.00,VWS V14.01,2013-06-18 02:47:00,
2013-06-17 22:52:00,74.9,60.6,29.70,WSW,246,0.0,0.0,61,0.00,,RA,0.00,VWS V14.01,2013-06-18 02:52:00,
2013-06-17 23:02:00,74.7,60.8,29.69,WSW,246,0.0,0.0,62,0.00,,RA,0.00,VWS V14.01,2013-06-18 03:02:00,
2013-06-17 23:07:00,74.2,60.4,29.69,WSW,246,0.0,0.0,62,0.00,,RA,0.00,VWS V14.01,2013-06-18 03:07:00,
2013-06-17 23:12:00,74.0,60.6,29.69,WSW,246,0.0,0.0,63,0.00,,RA,0.00,VWS V14.01,2013-06-18 03:12:00,
2013-06-17 23:22:00,74.4,60.5,29.69,WSW,246,0.0,0.0,62,0.00,,SCT120,0.00,VWS V14.01,2013-06-18 03:22:00,
2013-06-17 23:27:00,74.6,60.7,29.69,WSW,246,0.0,0.0,62,0.00,,SCT120,0.00,VWS V14.01,2013-06-18 03:27:00,
2013-06-17 23:32:00,74.7,60.8,29.68,WSW,246,0.0,0.0,62,0.00,,SCT120,0.00,VWS V14.01,2013-06-18 03:32:00,
2013-06-17 23:42:00,74.7,60.8,29.68,WSW,246,0.0,0.0,62,0.00,,SCT120,0.00,VWS V14.01,2013-06-18 03:42:00,
2013-06-17 23:47:00,74.9,61.0,29.68,WSW,246,0.0,0.0,62,0.00,,SCT120,0.00,VWS V14.01,2013-06-18 03:47:00,
2013-06-17 23:57:00,73.9,61.4,29.68,WSW,246,0.0,0.0,65,0.00,,SCT120,0.00,VWS V14.01,2013-06-18 03:57:00,